Regional Weather Roundup
Issued by NWS

Home | Current Version | Previous Version | Graphics & Text | Print | Product List | Glossary Off
Versions: 1 2 3 4 5 6 7 8 9 10 11 12 13 14 15 16 17 18 19 20 21 22 23 24 25 26 27 28 29 30 31 32 33 34 35 36 37 38 39 40 41 42 43 44 45 46 47 48 49 50

000
ASUS43 KMPX 040901
RWRMN
WEATHER ROUNDUP FOR MINNESOTA
NATIONAL WEATHER SERVICE TWIN CITIES/CHANHASSEN MN
400 AM CDT SAT JUL 04 2015


NOTE: "FAIR" INDICATES FEW OR NO CLOUDS BELOW 12,000 FEET WITH NO
SIGNIFICANT WEATHER AND/OR OBSTRUCTIONS TO VISIBILITY. N/A MEANS
CURRENT SKY AND/OR WEATHER CONDITIONS ARE NOT AVAILABLE.

MNZ060>063-068>070-041000-
   Twin Cities Metro

CITY           SKY/WX    TMP DP  RH WIND       PRES   REMARKS
TWIN CITIES    MOCLDY    67  60  78 S3        29.93S
ST PAUL        CLEAR     64  61  90 CALM      29.93R
CRYSTAL        CLEAR     64  60  87 CALM      29.91S
BLAINE         CLEAR     64  63  94 CALM      29.93R
LAKEVILLE      CLEAR     61  57  88 W3        29.94R
EDEN PRAIRIE   PTCLDY    65  60  84 CALM      29.93R
SOUTH ST PAUL  CLEAR     63  59  85 CALM      29.93R
LAKE ELMO      FAIR      61  61 100 CALM      29.94R
$$
MNZ001>005-007-008-013>017-022>024-027-028-041000-
   Northwest Minnesota

CITY           SKY/WX    TMP DP  RH WIND       PRES   REMARKS
BEMIDJI        CLEAR     52  51  95 CALM      29.94S
HALLOCK        CLEAR     57  55  94 S6        29.87F FOG
ROSEAU         CLEAR     61  55  82 S5        29.90S
WARROAD        CLEAR     61  57  88 CALM      29.91S
THIEF RVR FALL CLEAR     57  57 100 SE3       29.91F
CROOKSTON      CLEAR     61  57  88 SE7       29.90F FOG
FOSSTON        CLEAR     55  50  82 CALM      29.93F HAZE
DETROIT LAKES  CLEAR     63  59  88 CALM      29.95S FOG
MOORHEAD       CLEAR     63  61  94 SE3       29.91F FOG
PARK RAPIDS    CLOUDY    57  55  93 CALM      29.94F FOG
MAHNOMEN       CLOUDY    60  58  94 SE3       29.92S
$$
MNZ006-009>011-018-025>026-041000-
   North Central Minnesota

CITY           SKY/WX    TMP DP  RH WIND       PRES   REMARKS
BAUDETTE       CLEAR     56  52  86 S3        29.92S
FLAG ISLAND    CLEAR     70  63  78 S10       29.89S
INTL FALLS     CLEAR     48  47  96 CALM      29.93F
WASKISH        CLEAR     55  54  94 E3        29.93S FOG
BIG FORK       CLEAR     48  46  93 CALM      29.95S
LONGVILLE      CLEAR     54  52  94 CALM      29.94S FOG
GRAND RAPIDS   CLEAR     54  52  94 S3        29.95S
CRANE LAKE     CLEAR     46  46 100 CALM      29.97S
ORR            CLEAR     50  46  87 CALM      29.93F FOG
COOK           CLEAR     48  48 100 CALM      29.96S
WALKER         PTSUNNY   54  53  98 CALM      29.95S FOG
$$
MNZ012-019>021-037-041000-
   Northeast Minnesota

CITY           SKY/WX    TMP DP  RH WIND       PRES   REMARKS
DULUTH         CLEAR     60  53  77 E3        29.95R
ELY            CLEAR     46  46 100 CALM      29.96S
HIBBING        CLEAR     49  48  97 NW3       29.95S FOG
DULUTH HARBOR  CLEAR     64  59  82 NE6       29.94R
TWO HARBORS    CLEAR     63  55  77 N6        29.93R
SILVER BAY     CLEAR     57  54  88 CALM      29.94R
GRAND MARAIS     N/A     49  48  97 CALM      29.94R
G MARAIS ARPRT CLEAR     48  46  93 N5        29.98R FOG
$$
MNZ029>031-032-039>041-046>048-054>057-064-041000-
   West Central Minnesota

CITY           SKY/WX    TMP DP  RH WIND       PRES   REMARKS
FERGUS FALLS   CLEAR     64  64 100 SE3       29.92F FOG
WHEATON        CLEAR     57  55  94 CALM      29.94S FOG
MORRIS         FOG       61  59  94 SE3       29.92S VSB<1/4
ALEXANDRIA     PTCLDY    61  59  93 SE3       29.95F FOG
ELBOW LAKE     FAIR      66  62  86 CALM      29.93S FOG
WADENA         MOCLDY    55  55 100 CALM      29.94S FOG
GLENWOOD       CLEAR     64  63  94 E3        29.95S FOG
APPLETON       FOG       63  59  88 CALM      29.92S VSB 3/4
BENSON         FOG       57  55  94 CALM      29.93S VSB<1/4
ORTONVILLE     CLEAR     64  61  88 CALM      29.93S FOG
MADISON        FOG       63  61  94 CALM      29.93S VSB<1/4
WILLMAR        FAIR      63  61  94 CALM      29.95S FOG
$$
MNZ033>034-036-042>043-049>051-058-059-041000-
   Central Minnesota

CITY           SKY/WX    TMP DP  RH WIND       PRES   REMARKS
ST CLOUD       FOG       58  58 100 CALM      29.93S VSB 1/4
SAUK CENTRE    FOG       58  58  99 CALM      29.94F VSB 1
PAYNESVILLE    FOG       56  56 100 CALM      29.95R VSB<1/4
AITKIN         HAZE      52  46  82 CALM      29.93S VSB 1/2
PINE RIVER     FOG       54  52  94 CALM      29.98S VSB 1/2
BRAINERD       FOG       53  53 100 CALM      29.94S VSB 1/4
STAPLES        MOCLDY    59  57  94 CALM      29.94F FOG
LONG PRAIRIE   CLOUDY    59  59 100 CALM      29.95S FOG
LITTLE FALLS   FOG       55  55 100 CALM      29.94S VSB 1/4
LITCHFIELD     CLEAR     64  64 100 CALM      29.95R
BUFFALO        PTCLDY    62  59  90 CALM      29.95R
MAPLE LAKE       N/A     61  61  99 CALM      29.94S FOG
$$
MNZ037-044-045-052-053-041000-
   East Central Minnesota

CITY           SKY/WX    TMP DP  RH WIND       PRES   REMARKS
PRINCETON      FOG       59  57  94 CALM        N/A  VSB 1
MORA             N/A     55  55 100 CALM      29.96R FOG
CAMBRIDGE      HAZE      63  55  77 CALM      29.92R VSB 1/4
RUSH CITY      FOG       56  55  97 CALM      29.93R VSB 3/4
MOOSE LAKE     FOG       52  52 100 CALM      29.92S VSB 1
HINCKLEY       FAIR      57  57 100 CALM      29.94R FOG
CLOQUET        CLEAR     54  52  94 CALM      29.94F
MCGREGOR       CLEAR     52  52 100 CALM      29.95R
$$
MNZ071>073-080-081-089-090-097-098-041000-
   Southwest Minnesota

CITY           SKY/WX    TMP DP  RH WIND       PRES   REMARKS
MONTEVIDEO     CLEAR     63  63 100 CALM      29.94S FOG
GRANITE FALLS    N/A     62  61  97 CALM      29.95R FOG
CANBY          CLEAR     67  63  88 W3        29.95S
MARSHALL       CLEAR     66  61  82 W6          N/A
REDWOOD FALLS  PTCLDY    66  63  90 SW3       29.94R
OLIVIA         CLEAR     61  55  82 CALM      29.94R
PIPESTONE      CLEAR     61  59  94 CALM      29.98S FOG
WINDOM         CLEAR     63  59  88 CALM      29.97S FOG
WORTHINGTON    CLEAR     64  55  72 SW8       29.98S
JACKSON        CLEAR     64  57  77 SW6       29.98S
TRACY          CLEAR     67  64  89 SW7       29.96S
SLAYTON        CLEAR     65  62  92 CALM      29.99S
$$
MNZ065>067-074>077-082>085-091>093-041000-
   South Central Minnesota

CITY           SKY/WX    TMP DP  RH WIND       PRES   REMARKS
MANKATO        CLEAR     63  57  82 SW5       29.95R
NEW ULM        CLEAR     63  61  94 CALM      29.95R
ST JAMES       CLEAR     61  57  88 CALM      29.96S FOG
FAIRMONT       CLEAR     63  54  72 CALM      29.96S
GLENCOE        CLOUDY    61  59  94 CALM      29.94R
FARIBAULT      CLEAR     59  57  94 CALM      29.95S
OWATONNA       CLEAR     63  55  77 S3        29.95S
WASECA         CLEAR     55  54  94 CALM      29.97R
ALBERT LEA     CLEAR     61  57  88 CALM      29.97R
$$
MNZ078>079-086>088-094>096-041000-
   Southeast Minnesota

CITY           SKY/WX    TMP DP  RH WIND       PRES   REMARKS
ROCHESTER      CLEAR     58  54  86 SW7       29.97S
RED WING       CLEAR     61  57  88 CALM      29.92S
STANTON        CLOUDY    64  59  82 CALM      29.93S
DODGE CENTER   CLEAR     61  55  82 SW6       29.96R
WINONA         MOCLDY    61  59  94 CALM      29.94S
AUSTIN         CLEAR     59  55  88 CALM      29.96S
PRESTON        CLEAR     60  53  77 SW3       29.97R
$$
ABBREVIATIONS USED IN REMARKS
   TC - TEMPERATURES IN CELSIUS
  WCI - WIND CHILL INDEX
   HX - HEAT INDEX
  VSB - VISIBILITY
$$


USA.gov is the U.S. government's official web portal to all federal, state and local government web resources and services.